This is the latest recevied weather packets stored in our database for station/object KD8OZS. If no packets are shown the sender has not sent any weather packets the latest 10 day(s).
| Time | Temp. | Humidity | Pressure | Rain* | Wind** | Luminosity | Snow |
|---|---|---|---|---|---|---|---|
| 1788124561 | 23.89° C | 91% | 1010.7 hPa | 0 mm | - | 114 W/m² | - |
| 1788124256 | 23.33° C | 91% | 1010.9 hPa | 0 mm | - | 101 W/m² | - |
| 1788123951 | 23.33° C | 91% | 1011.1 hPa | 0 mm | - | 73 W/m² | - |
| 1788123650 | 23.33° C | 91% | 1011.1 hPa | 0 mm | - | 88 W/m² | - |
| 1788123348 | 23.33° C | 91% | 1011.2 hPa | 0 mm | - | 111 W/m² | - |
| 1788123044 | 23.33° C | 90% | 1011.7 hPa | 0 mm | - | 74 W/m² | - |
| 1788122743 | 23.89° C | 90% | 1011.9 hPa | 0 mm | - | 70 W/m² | - |
| 1788122442 | 24.44° C | 89% | 1011.8 hPa | 0 mm | - | 56 W/m² | - |
| 1788122139 | 24.44° C | 87% | 1011.7 hPa | 0 mm | - | 63 W/m² | - |
| 1788121839 | 25° C | 84% | 1011.9 hPa | 0 mm | - | 54 W/m² | - |
| 1788121539 | 25° C | 83% | 1011.9 hPa | 0 mm | - | 96 W/m² | - |
| 1788121235 | 25° C | 83% | 1011.9 hPa | 0 mm | - | 151 W/m² | - |
| 1788120934 | 24.44° C | 85% | 1011.7 hPa | 0 mm | - | 156 W/m² | - |
| 1788120629 | 24.44° C | 87% | 1011.9 hPa | 0 mm | - | 184 W/m² | - |
| 1788120324 | 24.44° C | 86% | 1011.9 hPa | 0 mm | - | 150 W/m² | - |
| 1788120023 | 24.44° C | 87% | 1012.3 hPa | 0 mm | - | 103 W/m² | - |
| 1788119719 | 24.44° C | 87% | 1012.2 hPa | 0 mm | - | 59 W/m² | - |
| 1788119417 | 25° C | 84% | 1012.4 hPa | 0 mm | - | 74 W/m² | - |
| 1788119117 | 25° C | 82% | 1012.8 hPa | 0 mm | - | 131 W/m² | - |
| 1788118811 | 24.44° C | 84% | 1012.9 hPa | 0 mm | - | 161 W/m² | - |
| 1788118510 | 24.44° C | 84% | 1013 hPa | 0 mm | - | 149 W/m² | - |
| 1788118205 | 25° C | 85% | 1012.9 hPa | 0 mm | - | 158 W/m² | - |
| 1788117901 | 25° C | 83% | 1013.2 hPa | 0 mm | - | 160 W/m² | - |
| 1788117595 | 25.56° C | 84% | 1013.2 hPa | 0 mm | - | 150 W/m² | - |
| 1788117290 | 25.56° C | 82% | 1013.2 hPa | 0 mm | - | 142 W/m² | - |
* Rain latest hour (hover to see other rain measurements)
** Current wind speed in m/s (hover to see current wind gust speed)